Location: Lourdes
(43.1000°N, 0.0500°W)
Time: 14:11:16
(UTC+00:00)

Cosmos 1606 - Visible Passes

Search period start: 20 April 2021 00:00
Search period end: 30 April 2021 00:00
Orbit: 502 x 527 km, 82.5° (Epoch: 19 April)

Date Brightness Start Highest point End Pass type
(mag) Time Alt. Az. Time Alt. Az. Time Alt. Az.
20 Apr 5.5 22:38:01 15° N 22:38:01 15° N 22:38:44 10° N visible
21 Apr 5.3 22:22:29 16° NNE 22:22:29 16° NNE 22:23:22 10° N visible
22 Apr 5.1 22:06:56 18° NNE 22:06:56 18° NNE 22:07:58 10° NNE visible
23 Apr 4.9 21:51:21 19° NNE 21:51:21 19° NNE 21:52:33 10° NNE visible
24 Apr 4.7 21:35:44 20° NNE 21:35:44 20° NNE 21:37:06 10° NNE visible
24 Apr 5.7 23:10:41 12° NW 23:10:41 12° NW 23:11:27 10° NW visible
25 Apr 4.6 21:20:06 20° NE 21:20:06 20° NE 21:21:37 10° NNE visible
25 Apr 5.5 22:55:03 15° NW 22:55:03 15° NW 22:56:29 10° NNW visible
26 Apr 4.5 21:04:26 20° NE 21:04:26 20° NE 21:06:05 10° NNE visible
26 Apr 5.2 22:39:22 19° NW 22:39:22 19° NW 22:41:25 10° NNW visible
27 Apr 4.4 20:48:43 19° ENE 20:48:43 19° ENE 20:50:29 10° NE visible
27 Apr 4.8 22:23:40 23° WNW 22:23:40 23° WNW 22:26:16 10° NNW visible
28 Apr 4.5 20:32:57 17° ENE 20:32:57 17° ENE 20:34:51 10° NE visible
28 Apr 4.4 22:07:54 29° WNW 22:07:54 29° WNW 22:11:04 10° NNW visible
29 Apr 4.5 20:17:09 14° E 20:17:09 14° E 20:19:05 10° NE visible
29 Apr 3.9 21:52:06 35° W 21:52:19 35° WNW 21:55:49 10° N visible
